Regional Weather Roundup
Issued by NWS

Home | Current Version | Previous Version | Text Only | Print | Product List | Glossary Off
Versions: 1 2 3 4 5 6 7 8 9 10 11 12 13 14 15 16 17 18 19 20 21 22 23 24 25 26 27 28 29 30 31 32 33 34 35 36 37 38 39 40 41 42 43 44 45 46 47 48 49 50

000
ASUS43 KLSX 302207
RWRMO

WEATHER SUMMARY FOR MISSOURI
NATIONAL WEATHER SERVICE SPRINGFIELD MO
500 PM CDT TUE JUN 30 2015

NOTE: "FAIR" INDICATES FEW OR NO CLOUDS BELOW 12,000 FEET WITH NO
       SIGNIFICANT WEATHER AND/OR OBSTRUCTIONS TO VISIBILITY.
       CURRENT SKY AND/OR WEATHER CONDITIONS ARE NOT AVAILABLE FOR
       CHILLICOTHE AND FARMINGTON.

MOZ001>031-035>038-043-044-053-054-302300-
...NORTHERN AND WESTERN MISSOURI...

CITY           SKY/WX    TMP DP  RH WIND       PRES   REMARKS
KANSAS CTY INT PTSUNNY   84  66  54 NE6       29.90F
KANSAS C DTWN  PTSUNNY   87  64  46 CALM      29.89F
LEE`S SUMMIT   PTSUNNY   87  64  46 NE3       29.91F
ST JOSEPH      CLOUDY    83  68  60 E3        29.89F
CHILLICOTHE      N/A     80  71  74 W3        29.91F
KIRKSVILLE     MOSUNNY   79  67  66 W6        29.90F

$$
MOZ066>068-077>081-088>096-101>105-302300-
...SOUTHWEST MISSOURI...

CITY           SKY/WX    TMP DP  RH WIND       PRES   REMARKS
SPRINGFIELD    MOSUNNY   87  66  49 NW7       29.94F
JOPLIN         MOSUNNY   90  70  51 W6        29.92F HX  95

$$
MOZ032>034-039>042-045>050-055>058-069>072-302300-
...CENTRAL MISSOURI...

CITY           SKY/WX    TMP DP  RH WIND       PRES   REMARKS
COLUMBIA       MOSUNNY   83  69  62 W10       29.90F
JEFFERSON CITY MOSUNNY   85  66  53 W9        29.88F
ROLLA          MOSUNNY   81  67  62 W9        29.91F
SEDALIA        CLOUDY    83  69  62 W5        29.93F
WHITEMAN AFB     N/A     84  68  57 W5        29.91F
WARRENSBURG    CLOUDY    84  64  51 CALM      29.90F
OSAGE BEACH    PTSUNNY   82  70  65 W5        29.92F

$$
MOZ051-052-059>065-302300-
...EAST CENTRAL MISSOURI...

CITY           SKY/WX    TMP DP  RH WIND       PRES   REMARKS
ST LOUIS INTL  MOSUNNY   85  67  54 W12       29.86F
SPIRIT OF STL  CLOUDY    82  70  66 W8        29.85F
ST CHARLES     SUNNY     83  68  60 W10       29.84F

$$
MOZ072>076-082>087-097>100-106>115-302300-
...SOUTH CENTRAL AND SOUTHEAST MISSOURI...

CITY           SKY/WX    TMP DP  RH WIND       PRES   REMARKS
CAPE GIRARDEAU SUNNY     85  69  58 W10       29.87F
FARMINGTON     SUNNY     81  68  65 W7        29.94F
POPLAR BLUFF   SUNNY     86  68  54 SW8       29.88F
WEST PLAINS    MOSUNNY   84  67  56 W9        29.96S

$$



USA.gov is the U.S. government's official web portal to all federal, state and local government web resources and services.